�N����,����,�~����,�C��,���x,�C��,����,���ϕ���,�ő�u�ԕ���,�ő厞����,���˗�,�I�_���x,�n�����x,�ő啗���N��,DTYPE
"21/05/09","00:10",0.0,16.1,92.0,1001.5,314.9,1.0,1.2,322.3,0.00,14.8,130.0,"00:03:20",1
"21/05/09","00:20",0.0,16.2,92.1,1001.7,319.9,0.8,1.3,326.9,0.00,15.0,130.0,"00:15:44",1
"21/05/09","00:30",0.0,16.3,92.2,1001.7,325.0,1.0,1.2,321.4,0.00,15.1,130.0,"00:21:04",1
"21/05/09","00:40",0.0,16.3,92.4,1001.2,336.6,1.1,1.4,356.3,0.00,15.1,130.0,"00:31:28",1
"21/05/09","00:50",0.0,16.3,92.5,1001.2,334.4,0.8,1.6,328.7,0.00,15.1,130.0,"00:46:56",1
"21/05/09","01:00",0.0,16.2,92.6,1001.7,277.4,0.7,1.1,277.5,0.00,15.0,130.0,"00:52:32",1
"21/05/09","01:10",0.0,16.1,92.8,1001.5,296.9,0.6,1.2,322.4,0.00,15.0,130.0,"01:05:04",1
"21/05/09","01:20",0.0,16.1,92.9,1001.2,317.5,0.8,1.1,324.9,0.00,15.0,130.0,"01:11:28",1
"21/05/09","01:30",0.0,16.2,93.0,1001.0,318.1,1.1,1.6,331.3,0.00,15.1,130.0,"01:29:52",1
"21/05/09","01:40",0.0,16.2,93.1,1001.0,296.3,0.7,1.8,320.0,0.00,15.1,130.0,"01:30:32",1
"21/05/09","01:50",0.0,16.1,93.2,1001.2,293.2,0.8,1.1,279.3,0.00,15.0,130.0,"01:40:56",1
"21/05/09","02:00",0.0,16.1,93.3,1001.0,274.1,0.7,1.0,273.5,0.00,15.1,130.0,"01:50:16",1
"21/05/09","02:10",0.0,16.1,93.4,1001.0,323.6,1.1,1.7,340.3,0.00,15.1,130.0,"02:07:52",1
"21/05/09","02:20",0.0,16.0,93.5,1000.8,314.4,1.0,1.3,335.0,0.00,15.0,130.0,"02:10:08",1
"21/05/09","02:30",0.0,16.0,93.6,1000.8,294.9,1.0,1.3,304.9,0.00,15.0,130.0,"02:26:24",1
"21/05/09","02:40",0.0,16.0,93.7,1000.8,312.0,0.7,1.2,327.8,0.00,15.0,130.0,"02:34:00",1
"21/05/09","02:50",0.0,16.1,93.8,1001.0,292.0,0.7,1.3,266.6,0.00,15.1,130.0,"02:44:00",1
"21/05/09","03:00",0.0,16.1,93.8,1000.8,306.2,1.0,1.7,327.1,0.00,15.1,130.0,"02:54:56",1
"21/05/09","03:10",0.0,16.0,93.9,1000.8,322.6,0.3,0.9,329.8,0.00,15.1,130.0,"03:07:52",1
"21/05/09","03:20",0.0,16.1,94.2,1000.8,334.6,0.8,2.1,315.2,0.00,15.2,130.0,"03:10:02",1
"21/05/09","03:30",0.0,16.2,94.2,1000.8,322.6,1.1,2.1,322.9,0.00,15.3,130.0,"03:20:16",1
"21/05/09","03:40",0.0,16.2,94.3,1001.2,315.3,0.7,1.3,38.1,0.00,15.3,130.0,"03:31:12",1
"21/05/09","03:50",0.0,16.2,94.3,1000.8,292.9,0.7,1.7,315.0,0.00,15.3,130.0,"03:47:36",1
"21/05/09","04:00",0.0,16.3,94.4,1001.0,273.7,0.8,1.4,311.4,0.00,15.4,130.0,"03:58:00",1
"21/05/09","04:10",0.0,16.3,94.5,1001.2,334.3,1.1,1.8,330.1,0.00,15.5,130.0,"04:08:32",1
"21/05/09","04:20",0.0,16.2,94.6,1001.0,316.3,0.8,1.6,316.9,0.00,15.4,130.0,"04:10:32",1
"21/05/09","04:30",0.0,16.1,94.7,1001.2,314.8,0.7,1.4,303.2,0.00,15.3,130.0,"04:23:36",1
"21/05/09","04:40",0.0,15.8,94.7,1000.8,308.3,1.1,2.0,322.3,0.00,15.0,130.0,"04:35:52",1
"21/05/09","04:50",0.0,15.8,94.9,1000.8,303.5,1.1,2.1,299.0,0.00,15.0,130.0,"04:45:20",1
"21/05/09","05:00",0.0,15.9,95.0,1001.0,280.7,1.0,1.2,276.7,0.00,15.1,130.0,"04:54:00",1
"21/05/09","05:10",0.0,16.0,95.1,1001.0,322.4,1.0,1.6,326.8,0.00,15.3,130.0,"05:08:24",1
"21/05/09","05:20",0.0,16.0,95.1,1001.2,309.0,0.6,1.3,315.0,0.00,15.3,130.0,"05:11:12",1
"21/05/09","05:30",0.0,16.0,95.1,1001.5,292.4,0.3,1.1,311.4,0.00,15.3,130.0,"05:20:02",1
"21/05/09","05:40",0.0,16.1,95.2,1001.2,324.9,1.1,2.0,315.8,0.00,15.4,130.0,"05:31:12",1
"21/05/09","05:50",0.0,16.2,95.2,1001.5,329.6,1.0,1.4,323.8,0.00,15.5,130.0,"05:41:28",1
"21/05/09","06:00",0.0,16.2,95.3,1001.5,303.4,0.6,1.3,298.4,0.00,15.5,130.0,"05:59:36",1
"21/05/09","06:10",0.0,16.4,95.4,1001.7,325.4,0.8,1.3,312.2,0.00,15.7,130.0,"06:00:24",1
"21/05/09","06:20",0.0,16.6,95.4,1001.7,262.5,0.5,1.1,322.1,0.01,15.9,130.0,"06:10:24",1
"21/05/09","06:30",0.0,16.6,95.4,1001.7,290.7,0.2,0.5,313.3,0.02,15.9,130.0,"06:24:16",1
"21/05/09","06:40",0.0,16.8,95.4,1001.7,331.6,0.8,1.3,332.0,0.04,16.1,130.0,"06:35:12",1
"21/05/09","06:50",0.0,17.1,95.4,1001.7,305.9,0.7,1.2,326.5,0.05,16.4,130.0,"06:43:36",1
"21/05/09","07:00",0.0,17.5,95.3,1001.7,264.1,0.8,1.4,308.7,0.06,16.8,130.0,"06:58:40",1
"21/05/09","07:10",0.0,17.6,95.3,1001.7,330.7,1.2,2.5,330.2,0.04,16.9,130.0,"07:08:48",1
"21/05/09","07:20",0.0,17.9,95.3,1001.9,268.9,0.6,1.2,248.3,0.06,17.2,130.0,"07:16:00",1
"21/05/09","07:30",0.0,18.3,95.3,1002.2,310.4,0.8,1.4,319.8,0.07,17.6,130.0,"07:26:32",1
"21/05/09","07:40",0.0,18.5,95.2,1002.2,322.7,1.2,2.0,335.2,0.09,17.8,130.0,"07:33:04",1
"21/05/09","07:50",0.0,19.3,94.9,1002.2,292.9,0.6,1.2,317.4,0.14,18.5,130.0,"07:47:04",1
"21/05/09","08:00",0.0,19.1,92.8,1002.2,249.4,1.0,3.1,212.4,0.20,17.9,130.0,"07:59:44",1
"21/05/09","08:10",0.0,19.3,92.6,1001.9,236.5,2.3,7.0,232.8,0.24,18.1,130.0,"08:06:08",1
"21/05/09","08:20",0.0,19.9,90.1,1001.9,242.8,2.3,4.8,242.8,0.27,18.3,130.0,"08:10:48",1
"21/05/09","08:30",0.0,21.0,85.6,1001.7,254.0,2.1,5.0,238.4,0.30,18.5,130.0,"08:25:44",1
"21/05/09","08:40",0.0,21.7,79.0,1001.5,266.7,2.2,6.0,238.4,0.32,17.9,130.0,"08:32:24",1
"21/05/09","08:50",0.0,22.3,73.1,1001.2,262.0,2.1,5.6,335.9,0.35,17.3,130.0,"08:49:28",1
"21/05/09","09:00",0.0,22.9,70.2,1001.5,292.9,1.8,4.8,347.3,0.36,17.2,130.0,"08:53:04",1
"21/05/09","09:10",0.0,23.2,67.8,1001.2,292.7,1.7,5.1,316.2,0.39,17.0,130.0,"09:06:32",1
"21/05/09","09:20",0.0,22.8,66.5,1000.5,296.8,2.3,8.5,344.3,0.42,16.3,130.0,"09:19:04",1
"21/05/09","09:30",0.0,23.1,67.5,1001.0,290.4,2.3,5.1,306.9,0.41,16.8,130.0,"09:20:08",1
"21/05/09","09:40",0.0,23.0,65.2,1000.8,264.0,2.5,5.6,206.1,0.46,16.2,130.0,"09:36:16",1
"21/05/09","09:50",0.0,23.3,64.3,1001.0,277.1,2.2,5.2,341.9,0.49,16.2,130.0,"09:49:44",1
"21/05/09","10:00",0.0,23.3,62.6,1000.8,286.8,2.5,6.3,347.2,0.49,15.8,130.0,"09:58:48",1
"21/05/09","10:10",0.0,23.5,62.5,1000.8,311.2,2.8,6.3,316.3,0.53,16.0,130.0,"10:03:28",1
"21/05/09","10:20",0.0,24.0,59.9,1000.3,254.6,2.0,4.2,319.1,0.53,15.8,130.0,"10:18:00",1
"21/05/09","10:30",0.0,24.4,58.7,1000.3,271.6,2.1,7.1,229.6,0.55,15.8,130.0,"10:26:08",1
"21/05/09","10:40",0.0,24.2,56.6,1000.3,310.1,2.6,6.4,337.3,0.53,15.1,130.0,"10:36:24",1
"21/05/09","10:50",0.0,24.3,57.1,1000.0,281.4,2.1,6.6,310.2,0.47,15.3,130.0,"10:45:20",1
"21/05/09","11:00",0.0,24.5,56.0,999.8,283.2,2.2,6.0,328.4,0.51,15.2,130.0,"10:54:00",1
"21/05/09","11:10",0.0,24.8,53.7,1000.0,265.4,2.2,4.5,307.8,0.61,14.8,130.0,"11:00:48",1
"21/05/09","11:20",0.0,24.7,52.4,999.3,302.2,2.3,5.5,345.1,0.47,14.4,130.0,"11:19:52",1
"21/05/09","11:30",0.0,25.0,51.2,999.8,286.6,2.3,5.1,229.1,0.60,14.3,130.0,"11:23:20",1
"21/05/09","11:40",0.0,25.1,49.1,999.8,257.8,2.6,6.3,328.6,0.60,13.7,130.0,"11:30:02",1
"21/05/09","11:50",0.0,25.6,51.3,999.3,278.8,2.3,4.9,238.8,0.63,14.9,130.0,"11:44:00",1
"21/05/09","12:00",0.0,25.6,48.2,999.3,235.2,2.6,7.5,256.1,0.57,13.9,130.0,"11:57:20",1
"21/05/09","12:10",0.0,25.9,49.7,998.4,283.8,2.1,6.2,335.9,0.63,14.6,130.0,"12:05:20",1
"21/05/09","12:20",0.0,25.0,49.9,999.1,325.0,2.6,6.6,343.6,0.38,13.9,130.0,"12:10:48",1
"21/05/09","12:30",0.0,24.7,51.2,999.1,304.2,2.0,5.0,341.4,0.27,14.0,130.0,"12:21:04",1
"21/05/09","12:40",0.0,24.4,51.7,999.3,324.0,2.0,5.2,345.7,0.26,13.9,130.0,"12:34:08",1
"21/05/09","12:50",0.0,24.5,52.7,999.1,306.2,2.0,5.0,342.3,0.29,14.3,130.0,"12:43:20",1
"21/05/09","13:00",0.0,25.6,50.3,999.1,300.9,1.7,5.2,339.9,0.54,14.5,130.0,"12:52:24",1
"21/05/09","13:10",0.0,26.2,50.8,998.9,208.3,1.1,2.7,230.2,0.47,15.3,130.0,"13:02:16",1
"21/05/09","13:20",0.0,26.4,45.2,998.6,300.8,1.7,6.3,336.7,0.62,13.6,130.0,"13:15:44",1
"21/05/09","13:30",0.0,25.5,46.2,998.4,314.2,2.0,6.0,340.1,0.22,13.1,130.0,"13:22:48",1
"21/05/09","13:40",0.0,25.2,46.2,997.9,303.2,1.3,4.0,331.0,0.21,12.9,130.0,"13:30:56",1
"21/05/09","13:50",0.0,24.9,41.6,998.4,300.0,2.1,5.0,338.0,0.23,11.0,130.0,"13:43:36",1
"21/05/09","14:00",0.0,24.7,42.7,998.4,262.0,1.6,4.1,356.4,0.14,11.2,130.0,"13:50:16",1
"21/05/09","14:10",0.0,24.5,44.1,998.6,321.7,1.8,3.7,332.5,0.11,11.5,130.0,"14:02:08",1
"21/05/09","14:20",0.0,24.8,41.8,998.4,226.8,1.5,4.1,339.4,0.20,11.0,130.0,"14:16:16",1
"21/05/09","14:30",0.0,24.5,42.7,999.1,243.8,1.7,5.0,228.7,0.10,11.0,130.0,"14:25:28",1
"21/05/09","14:40",0.0,24.1,43.0,998.9,290.8,1.6,4.0,225.8,0.05,10.8,130.0,"14:39:44",1
"21/05/09","14:50",0.0,23.4,54.3,998.9,126.2,1.8,4.3,120.8,0.03,13.7,130.0,"14:46:08",1
"21/05/09","15:00",0.0,22.2,58.8,999.1,355.1,1.5,4.1,5.3,0.02,13.8,130.0,"14:57:28",1
"21/05/09","15:10",0.0,21.6,60.6,999.6,40.5,1.1,3.2,357.9,0.00,13.7,130.0,"15:00:08",1
"21/05/09","15:20",0.0,21.3,61.9,1000.0,55.7,1.0,2.4,20.7,0.00,13.7,130.0,"15:10:02",1
"21/05/09","15:30",0.0,21.0,62.8,999.8,82.2,1.3,3.2,115.2,0.00,13.7,130.0,"15:27:04",1
"21/05/09","15:40",0.0,21.0,64.5,1000.3,60.0,1.0,2.9,69.8,0.00,14.1,130.0,"15:33:20",1
"21/05/09","15:50",0.0,20.7,66.1,1000.3,14.7,0.5,1.2,19.3,0.00,14.2,130.0,"15:40:40",1
"21/05/09","16:00",0.0,20.6,67.9,1000.5,70.2,0.8,2.0,116.0,0.00,14.5,130.0,"15:56:08",1
"21/05/09","16:10",0.8,20.0,70.0,1001.0,6.1,1.2,2.6,3.1,0.00,14.4,130.0,"16:08:08",1
"21/05/09","16:20",0.2,19.7,73.2,1001.5,343.9,1.0,1.6,313.0,0.00,14.8,130.0,"16:10:32",1
"21/05/09","16:30",0.2,18.9,77.8,1001.5,333.8,1.2,2.9,339.1,0.00,15.0,130.0,"16:26:56",1
"21/05/09","16:40",0.0,18.5,80.6,1001.7,309.7,1.5,2.4,337.1,0.00,15.1,130.0,"16:32:24",1
"21/05/09","16:50",0.0,18.3,82.2,1001.7,302.7,1.3,2.5,336.6,0.00,15.3,130.0,"16:49:04",1
"21/05/09","17:00",0.0,18.1,84.0,1001.9,329.5,1.5,2.5,316.4,0.01,15.4,130.0,"16:51:20",1
"21/05/09","17:10",0.0,18.0,85.3,1001.9,357.0,1.3,2.2,12.8,0.02,15.5,130.0,"17:04:24",1
"21/05/09","17:20",0.0,17.6,86.3,1002.2,332.5,1.2,2.2,349.9,0.04,15.3,130.0,"17:13:28",1
"21/05/09","17:30",0.0,17.2,85.7,1001.9,318.5,1.7,4.1,342.5,0.04,14.8,130.0,"17:21:52",1
"21/05/09","17:40",0.0,17.2,84.0,1001.9,333.8,2.7,4.3,332.1,0.05,14.5,130.0,"17:33:12",1
"21/05/09","17:50",0.0,17.6,80.8,1002.2,319.9,1.7,3.6,317.1,0.04,14.3,130.0,"17:47:20",1
"21/05/09","18:00",0.0,17.4,74.7,1002.9,330.8,2.7,4.8,331.3,0.02,12.9,130.0,"17:56:24",1
"21/05/09","18:10",0.0,17.3,68.9,1002.6,337.8,2.1,4.0,344.0,0.02,11.6,130.0,"18:03:04",1
"21/05/09","18:20",0.0,17.2,64.9,1003.1,326.7,2.5,5.2,344.8,0.02,10.6,130.0,"18:19:52",1
"21/05/09","18:30",0.0,17.0,62.8,1002.9,333.8,2.7,4.8,334.7,0.01,9.9,130.0,"18:25:04",1
"21/05/09","18:40",0.0,17.0,61.1,1003.4,300.2,1.6,3.2,323.4,0.00,9.5,130.0,"18:35:20",1
"21/05/09","18:50",0.0,16.8,59.7,1003.1,312.9,2.5,5.7,351.9,0.00,9.0,130.0,"18:43:20",1
"21/05/09","19:00",0.0,16.6,59.8,1003.6,274.6,1.7,3.2,280.7,0.00,8.8,130.0,"18:53:04",1
"21/05/09","19:10",0.0,16.7,59.1,1004.1,260.3,1.7,3.5,254.9,0.00,8.7,130.0,"19:05:44",1
"21/05/09","19:20",0.0,16.3,59.0,1004.1,294.6,2.0,4.4,284.0,0.00,8.3,130.0,"19:14:24",1
"21/05/09","19:30",0.0,16.2,58.4,1004.1,277.0,1.8,4.4,309.6,0.00,8.1,130.0,"19:28:40",1
"21/05/09","19:40",0.0,16.2,58.3,1004.5,263.6,1.6,3.3,252.5,0.00,8.1,130.0,"19:34:16",1
"21/05/09","19:50",0.0,15.9,58.6,1004.5,285.4,1.5,3.4,301.8,0.00,7.8,130.0,"19:42:00",1
"21/05/09","20:00",0.0,15.9,58.2,1004.5,299.1,1.3,3.3,335.6,0.00,7.7,130.0,"19:52:00",1
"21/05/09","20:10",0.0,15.7,58.6,1004.5,263.8,1.1,3.3,235.2,0.00,7.7,130.0,"20:08:08",1
"21/05/09","20:20",0.0,15.5,59.1,1005.0,278.2,1.5,2.8,312.6,0.00,7.6,130.0,"20:10:32",1
"21/05/09","20:30",0.0,15.3,59.9,1005.2,243.9,1.2,2.5,199.1,0.00,7.6,130.0,"20:24:00",1
"21/05/09","20:40",0.0,15.1,60.3,1004.8,254.4,1.5,4.1,265.3,0.00,7.5,130.0,"20:30:02",1
"21/05/09","20:50",0.0,15.4,59.0,1005.2,233.9,1.1,2.8,234.4,0.00,7.5,130.0,"20:41:12",1
"21/05/09","21:00",0.0,15.1,59.8,1005.2,232.9,1.6,5.9,332.1,0.00,7.4,130.0,"20:58:40",1
"21/05/09","21:10",0.0,15.3,58.8,1005.7,273.4,1.6,3.6,254.0,0.00,7.3,130.0,"21:04:24",1
"21/05/09","21:20",0.0,14.9,60.5,1006.0,203.3,1.0,2.2,239.4,0.00,7.4,130.0,"21:11:12",1
"21/05/09","21:30",0.0,14.4,61.8,1005.7,254.2,0.5,1.2,203.8,0.00,7.2,130.0,"21:26:32",1
"21/05/09","21:40",0.0,14.2,63.8,1006.0,270.3,0.8,2.1,349.1,0.00,7.5,130.0,"21:34:16",1
"21/05/09","21:50",0.0,14.4,64.3,1006.4,338.5,1.6,3.7,84.9,0.00,7.8,130.0,"21:45:30",1
"21/05/09","22:00",0.0,14.5,63.8,1006.0,354.5,1.6,3.6,349.7,0.00,7.8,130.0,"21:50:24",1
"21/05/09","22:10",0.0,14.4,64.0,1006.4,347.5,1.6,3.1,343.5,0.00,7.7,130.0,"22:08:24",1
"21/05/09","22:20",0.0,14.1,65.2,1006.2,343.5,1.6,2.8,342.8,0.00,7.7,130.0,"22:10:26",1
"21/05/09","22:30",0.0,13.0,68.0,1006.2,332.2,1.2,2.2,316.9,0.00,7.3,130.0,"22:22:20",1
"21/05/09","22:40",0.0,11.9,70.6,1006.0,314.7,1.3,1.9,298.7,0.00,6.8,130.0,"22:38:16",1
"21/05/09","22:50",0.0,11.4,72.3,1006.2,318.6,1.3,2.0,317.0,0.00,6.6,130.0,"22:43:28",1
"21/05/09","23:00",0.0,11.1,74.3,1006.0,326.8,1.6,2.2,315.2,0.00,6.7,130.0,"22:55:04",1
"21/05/09","23:10",0.0,10.9,76.2,1006.0,322.3,1.6,2.4,317.9,0.00,6.9,130.0,"23:05:40",1
"21/05/09","23:20",0.0,10.6,78.2,1006.2,309.8,1.8,3.2,326.1,0.00,7.0,130.0,"23:19:20",1
"21/05/09","23:30",0.0,10.4,79.9,1006.4,307.1,1.2,2.7,318.4,0.00,7.1,130.0,"23:28:48",1
"21/05/09","23:40",0.0,10.4,81.0,1006.7,306.1,1.6,2.5,315.5,0.00,7.3,130.0,"23:34:32",1
"21/05/09","23:50",0.0,10.3,81.6,1006.4,313.2,1.5,2.5,317.1,0.00,7.3,130.0,"23:40:56",1
"21/05/09","24:00",0.0,9.9,82.2,1006.0,301.7,1.5,2.5,337.2,0.00,7.1,130.0,"23:50:40",1
